Location: Charlottesville
(38.0290°N, 78.4770°W)
Time: 00:33:06
(UTC-05:00)

ISS - Visible Passes

Search period start: 29 November 2022 00:00
Search period end: 09 December 2022 00:00
Orbit: 411 x 420 km, 51.6° (Epoch: 28 November)

Date Brightness Start Highest point End Pass type
(mag) Time Alt. Az. Time Alt. Az. Time Alt. Az.
01 Dec -1.6 18:05:17 10° NNW 18:06:54 13° NNE 18:06:54 13° NNE visible
02 Dec -1.4 18:52:18 10° NW 18:53:15 17° NNW 18:53:15 17° NNW visible
03 Dec -2.5 18:03:44 10° NNW 18:06:29 23° NNE 18:06:50 23° NE visible
04 Dec -2.7 18:51:13 10° NW 18:53:31 41° WNW 18:53:31 41° WNW visible
05 Dec -3.7 18:02:23 10° NW 18:05:40 56° NE 18:07:32 22° ESE visible
05 Dec -0.2 19:40:21 10° W 19:40:28 10° W 19:40:28 10° W visible
06 Dec -1.5 18:50:34 10° WNW 18:53:18 24° SW 18:54:55 17° S visible
07 Dec -2.7 18:01:19 10° WNW 18:04:30 45° SW 18:07:40 10° SSE visible
